风云三号F星 (FENGYUN 3F)

导读 | 豆包AI

FENGYUN 3F(风云三号F星)是中国于2023年8月3日发射的第二代极轨气象卫星,运行于836公里高度的太阳同步轨道,降交点过赤道时间为上午10点左右。卫星共搭载10台先进探测载荷,包括升级后的中分辨率光谱成像仪、红外高光谱大气垂直探测仪等,所有载荷均工作正常。它可实现全球多光谱、三维定量大气观测,数据广泛应用于数值天气预报、气候监测、防灾减灾等领域,与组网卫星共同提升我国气象观测精度与全球服务能力。

Basic Information
目录编号:
57490
目录名称:
FENGYUN 3F
国际标识:
2023-111A
轨道中心:
EARTH
卫星名称:
风云三号F星
卫星全名:
风云三号F星 (FENGYUN 3F)
卫星状态:
在轨 (已飞行954 天)
发射日期:
2023-08-03 UTC
国别 :
中国 (CN)
星等 :
--
Orbit Information
数据来源 国际轨道数据 AOE轨道数据
星历时间 2026-03-14T05:58:59+0800
11小时前
查看轨道信息
2026-03-10T12:00:00+0800
4天前
查看轨道信息
半长轴 7203.759km 7203.741km
偏心率 0.0001168 0.000172
轨道倾角 98.692° 98.686°
近地点辐角 77.695° 145.003°
升交点赤经 144.671° 140.984°
平近点角 282.436° 140.663°
近地点 824.78km 824.364km
远地点 826.464km 826.844km
周期 101.414分钟 101.414分钟
每日圈数 14.199205 14.19926
Detailed Information
平衡模式:
三轴稳定
覆盖范围:
亚洲
运营商:
夏威夷科学技术博物馆
运营商所在国:
美国
制造商(研发单位):
上海航天技术研究院
制造商所在国:
中国
使用方式:
暂无
Satellite Introduction
风云气象卫星系列(FENGYUN Meteorological Satellite)是中国于1977年开始研制的气象卫星系列,目前发射了风云一号、风云二号、风云三号、风云四号等卫星系列。其中,风云二号系列、风云四号系列为风云静止卫星,风云一号系列、风云三号系列为风云极轨卫星。该卫星仍在工作。
2D Orbit Map
3D Orbit Map
Orbit Altitude Analysis Chart
Orbit Inclination Analysis Chart
Orbit Comprehensive Analysis Chart
View Comprehensive Chart